Terminal Aerodrome Forecast
Issued by NWS

Home | Current Version | Previous Version | Text Only | Print | Product List | Glossary On
Versions: 1 2 3 4 5 6 7 8 9 10 11 12 13 14
000
FTUS45 KRIW 302001 AAA
TAFJAC
TAF AMD
KJAC 302001Z 3020/0118 30007KT P6SM SCT070 BKN100
     FM302200 31011G17KT P6SM VCTS SCT050CB BKN070
     FM010500 36008KT P6SM SCT100
      AMD LTD TO CLD VIS AND WIND=

USA.gov is the U.S. government's official web portal to all federal, state and local government web resources and services.